COSMOS 2538

Satellite information

Favourite Embed

Satellite Type and Status

PAYLOADIN ORBIT

Key statistics

Satellite COSMOS 2538 at a glance.

Uptime

2349

Days in orbit

Revolutions

≈ 15.2

Per day

Orbit

SSO

Sun Synchronous Orbit

Inclination

97.6

Latest

Satellite identification and parameters

Extended collection of information and parameters for COSMOS 2538.

Object identification

Identified? True

Debris? False

Object name: COSMOS 2538

International designator: 2019-039D

Object number (NORAD): 44424

Object ID (CCSDS): 44424

Country: COMMONWEALTH OF INDEPENDENT STATES (CIS)

Current information (Y/N): Y

RCS size: MEDIUM

Orbital parameters

Period: 94.857 minutes

Inclination: 97.6079 deg

SMA: 6889.817 km

Apoapsis: 542.0 km

Periapsis: 481.363 km

RAAN: 59.5656 deg

Eccentricy: 0.0044005

Argument of periapsis: 336.3168 deg

Mean anomaly: 23.6039 deg

Mean motion: 15.18068123 rev/day

Mean motion (dot): 0.000102 rev/day2

B* drag term: 0.00049139622 1/REarth

Two-line elements (TLE)

Creation date: Dec. 12, 2025, 10:14 a.m.

Reference frame: TEME

Reference center: EARTH

Epoch: Dec. 12, 2025, 6:47 a.m. UTC

TLE line 0: 0 COSMOS 2538

TLE line 1: 1 44424U 19039D 25346.28281816 .00010200 00000-0 49140-3 0 9990

TLE line 2: 2 44424 97.6079 59.5656 0044005 336.3168 23.6039 15.18068123351521

Live tracking on map

Real-time ground track for satellite COSMOS 2538.

In-orbit conjunctions

There are no conjunctions computed for COSMOS 2538, at the moment. Check back to stay up to date, as we update our databases every day.

Go to all conjunctions

Associated space launch

Four satellites in the interests of the Ministry of Defense of Russia.

COSMOS 2538 was lifted into orbit during the mission ‘Soyuz 2.1v/Volga | Kosmos 2535, Kosmos 2536, Kosmos 2537, Kosmos 2538’, on board a Soyuz 2.1v space rocket.

The launch took place on July 10, 2019, 5:14 p.m. from 43/4 (43R).

For more information about the launch, click the button.

Launch to space Soyuz 2.1v/Volga | Kosmos 2535, Kosmos 2536, Kosmos 2537, Kosmos 2538
Soyuz 2.1v/Volga | Kosmos 2535, Kosmos 2536, Kosmos 2537, Kosmos 2538

Agency: N/A

Status: Launch Successful

Launch date: July 10, 2019, 5:14 p.m. UTC

Rocket: Soyuz 2.1v

Launch pad: 43/4 (43R)

Location: Plesetsk Cosmodrome, Russian Federation

...

Latest news about this satellite

News about space launch
Four Russian military satellites launched from Plesetsk Cosmodrome


Newsletter sign-up

Weekly statistics, charts and insights to help you stay on top of the space industry.